Regional Weather Roundup
Issued by NWS

Home | Current Version | Previous Version | Text Only | Print | Product List | Glossary On
Versions: 1 2 3 4 5 6 7 8 9 10 11 12 13 14 15 16 17 18 19 20 21 22 23 24 25 26 27 28 29 30 31 32 33 34 35 36 37 38 39 40 41 42 43 44 45 46 47 48 49 50
000
ASUS43 KOAX 171510
RWRNE

WEATHER ROUNDUP FOR NEBRASKA
NATIONAL WEATHER SERVICE OMAHA NE
900 AM CST FRI NOV 17 2017

NOTES: SATELLITE DATA IS BEING USED TO AUGMENT CLOUD COVER ABOVE
       12000 FEET.
       "FAIR" INDICATES FEW OR NO CLOUDS BELOW 12,000 FEET WITH NO
       SIGNIFICANT WEATHER AND/OR OBSTRUCTIONS TO VISIBILITY.


NEZ001>004-019>022-054>056-171600-
NEBRASKA PANHANDLE

CITY           SKY/WX    TMP DP  RH WIND       PRES   REMARKS
SCOTTSBLUFF    PTSUNNY   43  27  53 NE6       29.72R
ALLIANCE       CLOUDY    36  30  79 NW9       29.71R WCI  29
CHADRON        LGT RAIN  39  32  76 CALM      29.70S
GORDON         CLOUDY    38  30  72 CALM      29.69S
KIMBALL        CLOUDY    38  29  71 N13       29.69R WCI  30
SIDNEY         CLOUDY    38  29  70 N10       29.66R WCI  31
$$

NEZ057>060-069>072-079>082-171600-
SOUTHWEST NEBRASKA

CITY           SKY/WX    TMP DP  RH WIND       PRES   REMARKS
NORTH PLATTE   MOSUNNY   41  32  70 CALM      29.63S
LEXINGTON      CLOUDY    39  38  94 W3        29.62S FOG
MCCOOK         MOSUNNY   48  37  65 N6        29.60R
OGALLALA       CLOUDY    42  31  63 NE8       29.65R
$$

NEZ005>010-023>029-035>040-094-171600-
NORTH CENTRAL NEBRASKA

CITY           SKY/WX    TMP DP  RH WIND       PRES   REMARKS
VALENTINE      CLOUDY    40  30  67 NW9       29.68R WCI  34
AINSWORTH      CLOUDY    39  32  74 NW10      29.65R WCI  32
BROKEN BOW     CLOUDY    43  33  68 N12       29.62S
O`NEILL        CLOUDY    42  33  71 NW7       29.60F
ORD            SUNNY     38  38 100 CALM      29.60S FOG
THEDFORD       CLOUDY    38  31  76 CALM      29.67S
$$

NEZ041-046>049-061>064-073>077-083>087-171600-
SOUTH CENTRAL NEBRASKA

CITY           SKY/WX    TMP DP  RH WIND       PRES   REMARKS
GRAND ISLAND   CLOUDY    48  48 100 SW3       29.61F FOG
AURORA         CLOUDY    52  49  89 W6        29.61S
HASTINGS       CLOUDY    50  48  93 W8        29.61R
HEBRON         MOSUNNY   58  54  85 SW7       29.59F
HOLDREGE       FOG       43  43 100 NW5       29.61F VSB 1/2
KEARNEY        CLOUDY    45  45 100 NW8       29.61F FOG
YORK           CLOUDY    54  54 100 CALM      29.62R
$$

NEZ011>018-030>034-042>045-171600-
NORTHEAST NEBRASKA

CITY           SKY/WX    TMP DP  RH WIND       PRES   REMARKS
NORFOLK        MOSUNNY   49  46  90 S6        29.57F
ALBION         CLOUDY    51  47  87 W6        29.60F
BLAIR          CLOUDY    53  48  84 S10       29.62F
COLUMBUS       CLOUDY    49  45  86 S5        29.61F
FREMONT        CLOUDY    51  45  78 SE6       29.63S
TEKAMAH        CLOUDY    51  42  71 SE7       29.63F
WAYNE          CLOUDY    48  40  75 S8        29.59F
$$

NEZ050>053-065>068-078-088>093-171600-
SOUTHEAST NEBRASKA

CITY           SKY/WX    TMP DP  RH WIND       PRES   REMARKS
LINCOLN        CLOUDY    56  51  84 E3        29.62F
OMAHA EPPLEY   CLOUDY    54  47  77 SE12      29.63F
BEATRICE       PTSUNNY   60  56  87 S9        29.60F FOG
FALLS CITY     CLOUDY    57  54  89 S16G25    29.64F
NEBRASKA CITY  CLOUDY    55  55 100 S13       29.64S FOG
PLATTSMOUTH    CLOUDY    54  51  90 SE9       29.64F
$$

NEZ044-045-051>053-067-171600-
OMAHA AREA

CITY           SKY/WX    TMP DP  RH WIND       PRES   REMARKS
OMAHA EPPLEY   CLOUDY    54  47  77 SE12      29.63F
BLAIR          CLOUDY    53  48  84 S10       29.62F
FREMONT        CLOUDY    51  45  78 SE6       29.63S
MILLARD        CLOUDY    55  49  82 SE8       29.63F
OFFUTT AFB     CLOUDY    54  49  84 SE14      29.63F
PLATTSMOUTH    CLOUDY    54  51  90 SE9       29.64F
WAHOO          CLOUDY    52  45  77 SE6       29.63S
$$




USA.gov is the U.S. government's official web portal to all federal, state and local government web resources and services.